Location: *
(49.8952°S, 168.1021°W)
Time: 00:47:16
(UTC+00:00)

Daily predictions for brighter satellites

Satellite Brightness Start Highest point End
(mag) Time Altitude Azimuth Time Altitude Azimuth Time Altitude Azimuth
SL-08 RB Rocket 4.0 07:43:34 10° SSE 07:48:22 80° WSW 07:53:04 10° NNW
BREEZE-M DEB (TANK) 4.2 07:30:51 10° W 07:49:39 89° N 07:54:17 10° E
OBJECT-B 1.2 07:46:46 10° SSE 07:49:59 45° E 07:53:08 10° N
Okean 3 Rocket 3.9 07:46:35 10° S 07:51:06 58° ESE 07:55:36 10° NNE
Cosmos 371 Rocket 3.9 07:46:56 10° SSW 07:51:43 45° ESE 07:56:27 10° NE
Cosmos-2242 3.1 07:48:12 10° N 07:52:37 74° E 07:57:06 10° SSE
Cosmos 1553 Rocket 4.0 07:46:37 10° N 07:52:50 73° E 07:59:01 10° SSE
CZ-4 R/B 4.0 07:50:01 10° S 07:53:39 27° WSW 07:57:15 10° WNW
JB-3 4.3 07:52:07 10° NNE 07:55:59 87° ESE 08:00:00 10° SSW
Cosmos 1633 2.6 07:52:26 10° S 07:56:08 85° E 07:59:48 10° N
Cosmos 1812 Rocket 4.3 07:51:53 10° NNW 07:56:12 57° WSW 08:00:35 10° S
Gblst 52 Del rocket 4.4 07:51:51 10° WSW 07:57:38 88° NNW 08:04:05 10° ENE
Meteor 2-3 Rocket 3.9 07:52:03 10° SSW 07:57:59 85° E 08:03:51 10° NNE
ASTEX 1 4.2 07:55:09 10° NE 07:59:40 36° ESE 08:04:13 10° S
CSL-04 Rocket 4.2 07:55:54 10° S 08:01:13 64° WSW 08:06:28 10° NNW
Cosmos 1943 3.6 07:55:46 10° NW 08:01:24 71° WSW 08:07:06 10° SSE
Cosmos 1766 Rocket 3.6 07:57:32 10° S 08:02:04 71° ESE 08:06:29 10° NNE
Cosmos 405 Rocket 2.9 08:03:18 10° S 08:07:17 67° ESE 08:11:19 10° NNE
Cosmos 2221 3.6 08:08:06 10° NNE 08:11:53 29° E 08:15:41 10° SSE
SL-4 R/B 2.1 08:09:51 10° W 08:14:04 79° SSW 08:17:58 10° ESE
S3M 4.0 08:07:53 10° N 08:14:07 74° E 08:20:31 10° SSE
FALCON 9 DEB 3.1 08:15:24 10° NW 08:18:35 53° NNE 08:21:49 10° ESE
Cosmos 389 Rocket 3.5 08:15:56 11° NNE 08:18:47 29° E 08:21:51 10° SSE
MOS 1 4.3 08:14:09 10° SSE 08:19:54 71° ENE 08:25:35 10° N
ATLAS CENTAUR R/B 4.4 08:18:52 10° W 08:22:49 24° SSW 08:26:46 10° SSE
CENTAUR R/B 3.9 08:15:25 10° WNW 08:22:49 48° SW 08:29:08 10° SE
Cosmos 1862 4.2 08:19:31 10° S 08:23:21 36° ESE 08:26:29 14° NE
MetOp-A 4.4 08:20:32 10° SSE 08:25:59 75° WSW 08:31:23 10° NNW
Cosmos 1842 Rocket 3.9 08:27:41 10° NNE 08:31:51 47° E 08:36:06 10° SSE
ARIANE 5 R/B 3.9 08:28:19 10° SE 08:32:00 24° E 08:34:36 15° NE
FALCON 9 DEB 2.9 08:31:30 10° WNW 08:34:44 74° NNE 08:38:01 10° ESE
Cosmos 1745 Rocket 4.4 08:28:29 10° SSW 08:34:53 67° W 08:41:13 10° N
USA 186 4.5 08:34:29 10° SSW 08:37:01 22° WSW 08:39:36 10° WNW
USA 307 3.7 08:36:10 10° W 08:40:32 58° SSW 08:44:54 10° ESE
SJ-6B 4.1 08:37:20 10° S 08:40:59 41° WSW 08:44:34 10° NW
Terra 3.8 08:39:41 10° ESE 08:41:54 13° E 08:43:40 11° ENE
Cosmos 304 Rocket 4.0 08:37:17 10° SSW 08:42:09 64° ESE 08:45:51 17° NE
ERBS 2.3 08:38:46 10° NW 08:42:12 89° ENE 08:45:40 10° ESE
Cosmos 923 Rocket 4.0 08:38:17 10° NNW 08:43:34 90° S 08:48:53 10° SSE
FALCON 9 DEB 4.0 08:40:28 10° WSW 08:43:57 50° S 08:47:25 10° E
ATLAS 3B R/B 3.0 08:37:51 10° NW 08:45:23 87° SW 08:52:49 10° SE
Cosmos 1869 3.6 08:41:23 10° NNW 08:45:30 76° W 08:49:43 10° S
GP-B 3.9 08:41:18 10° SSE 08:45:33 37° E 08:48:25 18° NE
Sich 1 4.4 08:42:50 10° S 08:46:41 27° ESE 08:49:24 15° ENE
USA 215 4.1 08:42:05 12° NNE 08:47:42 38° NW 08:53:49 10° WSW
Cosmos 332 Rocket 3.8 08:43:37 10° SSW 08:48:36 88° ESE 08:52:21 17° NNE
USA 308 3.7 08:44:54 10° W 08:49:15 55° SSW 08:53:36 10° ESE
Resurs 01 Rocket 1.6 08:45:15 10° SSE 08:49:49 75° ENE 08:54:19 10° N
USA 305 3.8 08:46:01 10° W 08:50:19 54° S 08:54:38 10° ESE
Cosmos 1680 Rocket 3.5 08:45:48 10° NNW 08:51:03 82° ENE 08:56:24 10° SSE
Cosmos 1500 Rocket 3.7 08:46:49 10° S 08:51:17 66° ESE 08:54:30 18° NNE
Cosmos 158 Rocket 4.3 08:47:08 10° NNW 08:52:27 73° WSW 08:57:40 10° SSE
Cosmos 1709 Rocket 4.2 08:46:41 10° S 08:53:11 81° W 08:59:09 12° N
Cosmos 1356 3.6 08:50:06 10° SSW 08:53:37 72° W 08:56:07 18° N
USA 290 4.3 08:54:22 14° E 08:54:22 14° E 08:56:09 10° ESE
Cosmos 1408 Rocket 3.9 08:50:15 10° SSW 08:54:42 64° W 08:58:35 13° N
Spot 2 Rocket 4.2 08:51:45 10° SSE 08:56:35 38° E 08:59:47 19° NNE
Cosmos 1420 Rocket 4.2 08:54:22 10° SSW 08:59:37 65° ESE 09:03:14 20° NE
USA 306 3.8 08:57:52 10° W 09:02:09 51° S 09:06:26 10° ESE
Cosmos 1980 Rocket 3.7 08:57:30 10° SSW 09:02:19 27° SE 09:07:05 10° E
ATLAS CENTAUR R/B 4.0 09:00:47 10° WSW 09:05:17 39° NW 09:12:51 16° NNE
IGS 5A 3.4 09:05:30 10° SSE 09:09:46 86° ENE 09:13:20 14° NNW
CARTOSAT-1 4.3 09:06:19 10° SSE 09:10:25 37° E 09:12:27 24° NNE
Cosmos 1607 4.2 09:05:35 10° SW 09:11:39 64° SE 09:16:19 18° ENE
Exosat Rocket 3.8 09:09:46 10° SSW 09:14:58 79° ESE 09:19:13 21° NNE
USA 245 3.8 09:11:14 10° SSE 09:16:38 70° E 09:19:38 20° N
Ariane Rocket 4.5 09:12:03 10° S 09:16:47 38° WSW 09:21:28 10° NW
ERS-1 Rocket 3.7 09:12:56 10° SSE 09:17:40 37° E 09:20:07 23° NNE
Gbstr 26 Del rocket 3.0 09:15:12 10° WSW 09:19:00 68° S 09:23:06 10° E
FALCON 9 DEB 3.4 09:16:14 10° W 09:19:28 65° SSW 09:22:45 10° ESE
FALCON 9 DEB 3.3 09:16:27 10° WNW 09:19:43 69° SSW 09:23:00 10° ESE
Landsat 7 3.8 09:15:44 10° SSE 09:20:37 90° WSW 09:24:45 14° NNW
Cosmos 2184 Rocket 4.2 09:15:03 10° S 09:21:32 69° ESE 09:25:51 22° NNE
OBJECT-B 3.9 09:20:03 10° SSW 09:21:54 14° WSW 09:23:44 10° W
Cosmos 2056 Rocket 3.9 09:17:05 10° SSW 09:22:10 55° WNW 09:25:38 20° N
Meteor 1-4 Rocket 3.1 09:24:50 31° NE 09:25:58 40° E 09:29:25 10° SSE
SPOT 5 3.4 09:22:24 10° SSE 09:26:39 39° E 09:28:35 26° NE
Cosmos 1452 Rocket 3.7 09:25:07 10° SSW 09:30:29 69° ESE 09:33:35 25° NE
MTI 4.3 09:31:38 29° NNW 09:32:53 49° W 09:35:59 10° SSW
Geosat 4.0 09:29:55 25° NE 09:32:56 82° ESE 09:38:03 10° SSW
SPOT 3 Rocket 4.3 09:28:19 10° S 09:33:28 53° WSW 09:38:32 10° NW
COSMOS 2406 3.6 09:30:22 23° NNE 09:33:32 45° ENE 09:38:58 10° SE
Cosmos 1743 Rocket 4.4 09:31:02 10° SSW 09:35:25 47° W 09:38:26 18° NNW
Cosmos 1633 Rocket 3.7 09:33:06 10° S 09:37:24 43° ESE 09:39:19 27° NE
EO 1 Del DPAF 3.5 09:38:59 33° NE 09:40:26 55° ESE 09:44:12 10° S
MetOp-B 4.4 09:35:30 10° S 09:40:56 69° WSW 09:46:02 11° NNW
Cosmos 1697 Rocket 2.8 09:38:04 10° SSW 09:43:47 75° ESE 09:47:02 27° NE
Cosmos 1805 Rocket 3.8 09:39:16 10° SSW 09:43:49 71° W 09:46:09 28° N
Thor Agena Rocket 3.6 09:42:13 26° N 09:45:17 74° WNW 09:50:31 10° SSW
Cosmos 292 Rocket 4.3 09:43:33 10° SSW 09:48:24 53° ESE 09:50:55 27° NE
Cosmos 2221 4.1 09:45:23 10° NW 09:49:22 33° WSW 09:53:23 10° S
Cosmos 2074 Rocket 4.1 09:43:07 10° SSW 09:49:25 77° W 09:53:24 24° N
Meteor 1-20 Rocket 4.4 09:43:30 10° S 09:49:26 72° ESE 09:52:40 28° NNE
Cosmos 1606 2.8 09:48:26 29° NNW 09:50:22 80° W 09:54:23 10° S
SL-4 R/B 2.0 09:49:51 10° WSW 09:53:52 71° S 09:56:45 16° E
FALCON 9 DEB 3.8 09:51:23 10° W 09:54:37 53° S 09:57:52 10° ESE
Cosmos 2369 3.8 09:50:12 10° SSW 09:56:01 76° ESE 09:59:08 28° NE
Lacrosse 5 4.0 09:58:46 12° ENE 09:58:46 12° ENE 09:59:36 10° E
Cosmos 1900 4.4 09:52:52 10° SW 09:57:50 77° SE 10:00:20 30° NE
SPOT 1/Viking Rocket 3.9 09:52:54 10° S 09:58:11 65° WSW 10:02:27 16° NNW
Cosmos 1833 Rocket 2.8 09:55:06 26° N 09:58:11 59° ENE 10:03:48 10° SE
PSLV R/B 4.3 09:56:49 28° ENE 09:58:36 44° ESE 10:02:49 10° S
Cosmos 1666 Rocket 3.5 09:55:05 10° S 09:59:36 84° E 10:01:23 36° NNE
Cosmos 2082 Rocket 2.9 09:58:06 28° NE 09:59:53 35° ENE 10:04:59 10° SE
Nadezhda 1 Rocket 4.0 09:56:32 26° N 10:00:18 74° E 10:06:46 10° SSE
deb Kosmos-1763 4.3 10:01:34 45° NE 10:01:55 47° ENE 10:05:24 10° SE
Cosmos 1656 4.3 10:00:34 10° SW 10:05:59 46° WNW 10:08:49 26° NNW
ARIANE 5 R/B 3.6 10:04:19 10° S 10:08:40 45° WSW 10:12:09 15° NW
FALCON 9 DEB 4.0 10:07:36 10° W 10:10:48 48° S 10:14:01 10° ESE
USA 281 3.2 10:08:23 10° SSE 10:15:05 76° ENE 10:19:31 23° NNW
Cosmos 1933 3.3 10:14:10 39° NNW 10:15:39 83° W 10:19:51 10° S
ERBS 4.5 10:15:40 10° WSW 10:18:44 29° SSW 10:21:50 10° SE
Terra 1.8 10:15:29 10° SSE 10:20:22 89° E 10:22:33 33° NNW
USA 307 3.8 10:16:43 10° WSW 10:21:02 52° S 10:25:20 10° E
FALCON 9 DEB 3.0 10:17:32 10° WSW 10:21:05 78° NNW 10:21:34 63° NE
Cosmos 1331 Rocket 4.0 10:15:56 10° SSW 10:21:12 78° ESE 10:23:31 34° NNE
Meteor 2-12 Rocket 4.5 10:17:25 10° S 10:23:42 85° W 10:26:50 32° N
Sich 1 4.2 10:20:20 10° SSW 10:24:27 36° W 10:26:22 24° NW
SL-16 R/B 3.6 10:20:08 10° SSW 10:25:19 33° SE 10:30:00 12° ENE
Resurs 01 Rocket 4.3 10:22:52 10° SSW 10:25:46 17° WSW 10:28:38 10° W
Cosmos 468 4.5 10:23:16 30° NNW 10:26:03 85° ENE 10:31:30 10° SSE
USA 290 3.3 10:27:04 28° WNW 10:28:21 42° WSW 10:31:32 10° SSE
Cosmos 2341 Rocket 4.0 10:22:39 10° S 10:29:01 78° E 10:32:08 32° NNE
USA 308 3.7 10:25:25 10° WSW 10:29:45 53° S 10:34:05 10° E
Cosmos 1328 Rocket 3.5 10:29:01 43° N 10:30:24 84° E 10:34:52 10° S
USA 305 3.7 10:26:28 10° WSW 10:30:47 54° S 10:35:06 10° E
Cosmos 1782 2.8 10:30:07 51° NNE 10:31:03 74° E 10:35:07 10° SSE
Cosmos 2360 Rocket 4.3 10:27:04 10° S 10:31:25 22° SE 10:35:43 10° E
Cosmos 2322 Rocket 3.7 10:26:33 10° SSW 10:31:39 31° SE 10:36:42 10° ENE
Cosmos 1110 Rocket 3.9 10:26:48 10° SSW 10:32:04 81° WNW 10:34:06 38° NNE
ATLAS 3B R/B 4.4 10:30:14 10° W 10:37:03 36° SSW 10:43:43 10° SE
Resurs 1-4 Rocket 3.6 10:36:08 16° ENE 10:39:32 30° ESE 10:44:12 10° S
Cosmos 1151 Rocket 3.2 10:39:29 37° NNW 10:41:05 66° WSW 10:45:26 10° S
USA 306 3.6 10:38:17 10° WSW 10:42:37 57° SSE 10:46:56 10° E
Cosmos 2278 3.7 10:36:52 10° SSW 10:42:38 79° WNW 10:45:01 37° NNE
Cosmos 2366 rocket 4.2 10:37:10 10° S 10:43:30 65° ESE 10:46:32 31° NNE
CZ-2D R/B 3.4 10:42:41 18° ENE 10:45:53 32° ESE 10:50:35 10° S
Cosmos 1980 Rocket 2.2 10:41:12 10° SSW 10:46:53 71° WNW 10:49:05 38° N
Cosmos 1048 Rocket 4.3 10:45:08 25° NW 10:48:17 68° WSW 10:53:43 10° SSE
Cosmos 2228 Rocket 3.9 10:50:14 35° NE 10:51:23 41° E 10:55:43 10° SSE
Cosmos 1238 Rocket 4.0 10:51:43 10° SSE 10:54:54 30° ESE 10:55:51 27° ENE
ADEOS II 4.2 10:51:09 10° E 10:54:55 20° SE 10:58:41 10° S
Helios 1B rocket 3.2 10:54:07 33° ENE 10:55:28 44° ESE 10:59:28 10° S
SL-8 Rocket 4.0 10:49:15 10° S 10:55:33 88° W 10:58:26 35° N
FALCON 9 DEB 4.0 10:52:28 10° WSW 10:55:39 47° S 10:58:50 10° E
FALCON 9 DEB 4.0 10:52:46 10° WSW 10:55:57 47° S 10:59:09 10° ESE
ERS-1 Rocket 4.3 10:51:48 10° S 10:56:27 36° WSW 11:00:06 15° NW
Spot 4 4.3 10:51:44 10° SSE 10:56:31 49° E 10:57:53 38° NE
Meteor 1-5 Rocket 4.4 10:50:39 10° S 10:56:46 81° ESE 10:59:26 35° NNE
SPOT 5 4.3 11:00:46 10° S 11:04:39 29° WSW 11:07:48 14° WNW
Gbstr 26 Del rocket 2.9 11:01:55 10° WSW 11:05:47 56° NNW 11:05:58 55° NNW
USA 81 4.5 11:03:48 10° S 11:09:05 55° E 11:11:14 33° NE
Cosmos 1470 Rocket 4.4 11:06:46 10° SSW 11:10:54 40° W 11:12:01 33° NW
Cosmos 1269 Rocket 4.0 11:09:32 41° N 11:11:23 70° ENE 11:16:46 10° SSE
Cosmos 494 Rocket 4.4 11:08:36 27° NW 11:11:26 62° WSW 11:16:46 10° SSE
NOSS 3-1 (C) 4.1 11:05:30 22° NNW 11:11:33 77° NE 11:19:08 10° SE
Cosmos 1515 Rocket 3.8 11:10:15 41° NW 11:11:37 65° WSW 11:16:07 10° S
ALOS 2 3.3 11:09:47 10° SSE 11:14:03 41° E 11:15:00 36° NE
COSMOS 2406 4.4 11:12:36 10° WNW 11:17:57 39° SW 11:23:19 10° SSE
Cosmos 1666 2.6 11:15:06 10° S 11:19:04 86° E 11:19:40 62° NNE
Cosmos 1536 3.5 11:15:13 10° S 11:19:11 47° ESE 11:20:15 37° ENE
Cosmos 1437 Rocket 2.8 11:18:41 53° NW 11:19:31 74° WSW 11:23:34 10° S
Cosmos 1821 Rocket 4.3 11:18:41 10° S 11:24:51 59° ESE 11:28:09 28° NE
Meteor 1-10 Rocket 4.2 11:23:25 38° N 11:25:46 82° E 11:31:32 10° SSE
USA 229 DEB 3.9 11:22:15 29° NNW 11:26:33 72° NE 11:33:49 10° SE
USA 229 3.9 11:22:22 29° NNW 11:26:38 71° NE 11:33:55 10° SE
Cosmos 1812 2.9 11:26:05 53° NW 11:26:49 66° WSW 11:30:44 10° S
Cosmos 1697 Rocket 4.3 11:23:03 10° SW 11:27:09 21° W 11:28:45 18° WNW
Cosmos 1707 Rocket 4.4 11:29:17 34° NE 11:30:27 41° E 11:34:42 10° SSE
FALCON 9 DEB 3.8 11:27:40 10° WSW 11:30:55 53° S 11:34:09 10° E
Cosmos 1500 4.2 11:27:31 10° SSW 11:31:04 34° W 11:31:34 33° WNW
SL-4 R/B 2.6 11:29:41 10° WSW 11:32:17 35° WNW 11:32:17 35° WNW
SL-19 R/B 4.3 11:34:00 35° NNE 11:36:36 88° ESE 11:42:40 10° SSW
Lacrosse 5 1.9 11:37:57 43° NNW 11:39:19 59° NE 11:44:25 10° ESE
Landsat 4 3.7 11:40:27 60° NNW 11:40:59 70° WNW 11:44:53 10° SSW
Cosmos 2333 Rocket 4.0 11:37:15 10° SSW 11:42:17 29° SE 11:47:15 10° ENE
Cosmos 1833 Rocket 4.3 11:37:27 10° WNW 11:42:29 31° SW 11:47:35 10° SSE
Cosmos 2082 Rocket 3.0 11:39:54 18° WNW 11:43:51 47° SW 11:49:20 10° SSE
NOSS 3-1 (A) 4.1 11:38:32 26° NNW 11:43:54 77° NE 11:51:29 10° SE
Cosmos 2219 Rocket 4.1 11:41:48 10° SSW 11:46:42 28° SE 11:51:33 10° ENE
SL-27 R/B 3.5 11:46:45 35° ENE 11:46:53 35° ENE 11:50:14 10° SE
FALCON 9 DEB 3.4 11:43:44 10° WSW 11:47:00 61° SSE 11:50:17 10° E
Cosmos 1733 Rocket 3.6 11:44:26 10° S 11:48:54 54° ESE 11:50:39 33° NE
Cosmos 1242 Rocket 2.3 11:53:12 70° NNE 11:53:32 81° E 11:57:11 10° SSE
Meteor 1-29 2.8 11:53:39 72° N 11:53:58 83° WNW 11:57:32 10° SSW
